TimeCST,TemperatureF,Dew PointF,Humidity,Sea Level PressureIn,VisibilityMPH,Wind Direction,Wind SpeedMPH,Gust SpeedMPH,PrecipitationIn,Events,Conditions,WindDirDegrees,DateUTC
12:53 AM,28.9,26.1,89,29.96,6.0,Calm,Calm,-,N/A,,Clear,0,2013-02-27 06:53:00
1:53 AM,32.0,26.1,79,29.97,10.0,WNW,4.6,-,N/A,,Partly Cloudy,290,2013-02-27 07:53:00
2:53 AM,32.0,26.1,79,29.99,10.0,Variable,4.6,-,N/A,,Scattered Clouds,0,2013-02-27 08:53:00
3:53 AM,33.1,27.0,78,29.99,10.0,WNW,5.8,-,N/A,,Overcast,300,2013-02-27 09:53:00
4:53 AM,33.1,27.0,78,29.99,9.0,West,3.5,-,N/A,,Overcast,270,2013-02-27 10:53:00
5:53 AM,32.0,27.0,82,30.01,9.0,Variable,3.5,-,N/A,,Scattered Clouds,0,2013-02-27 11:53:00
6:53 AM,30.9,26.1,82,30.03,6.0,WNW,3.5,-,N/A,,Haze,290,2013-02-27 12:53:00
7:53 AM,32.0,27.0,82,30.05,7.0,Variable,3.5,-,N/A,,Partly Cloudy,0,2013-02-27 13:53:00
9:53 AM,37.0,28.0,70,30.09,10.0,Variable,5.8,-,N/A,,Overcast,0,2013-02-27 15:53:00
10:53 AM,41.0,28.9,62,30.09,10.0,Variable,4.6,17.3,N/A,,Partly Cloudy,0,2013-02-27 16:53:00
11:36 AM,42.8,28.4,57,30.07,10.0,NW,9.2,17.3,N/A,,Mostly Cloudy,320,2013-02-27 17:36:00
11:53 AM,43.0,28.0,56,30.09,10.0,WNW,9.2,21.9,N/A,,Mostly Cloudy,300,2013-02-27 17:53:00
12:18 PM,44.6,28.4,53,30.06,10.0,Variable,6.9,18.4,N/A,,Scattered Clouds,0,2013-02-27 18:18:00
12:53 PM,46.0,27.0,47,30.08,10.0,WNW,12.7,21.9,N/A,,Clear,290,2013-02-27 18:53:00
1:53 PM,46.9,26.1,44,30.08,10.0,WNW,13.8,23.0,N/A,,Scattered Clouds,290,2013-02-27 19:53:00
2:53 PM,46.9,24.1,41,30.08,10.0,WNW,11.5,19.6,N/A,,Clear,300,2013-02-27 20:53:00
3:53 PM,45.0,25.0,46,30.10,10.0,WNW,11.5,25.3,N/A,,Clear,300,2013-02-27 21:53:00
4:53 PM,43.0,24.1,47,30.13,10.0,NNW,10.4,21.9,N/A,,Clear,330,2013-02-27 22:53:00
5:53 PM,41.0,24.1,51,30.14,10.0,NNW,3.5,-,N/A,,Clear,330,2013-02-27 23:53:00
6:53 PM,39.9,24.1,53,30.16,10.0,WNW,3.5,-,N/A,,Clear,300,2013-02-28 00:53:00
8:53 PM,37.0,24.1,59,30.19,10.0,NW,5.8,-,N/A,,Clear,310,2013-02-28 02:53:00
9:53 PM,37.0,24.1,59,30.19,10.0,WNW,5.8,-,N/A,,Clear,300,2013-02-28 03:53:00
10:53 PM,36.0,25.0,64,30.19,10.0,Variable,4.6,-,N/A,,Clear,0,2013-02-28 04:53:00
11:53 PM,35.1,25.0,67,30.19,10.0,Variable,4.6,-,N/A,,Clear,0,2013-02-28 05:53:00